Weather History for Sturgeon Bay, WI

Change the Weather History Date:

Wednesday, September 28, 2011

  Actual Average Record
Temperature  
Mean Temperature 58 °F -  
Max Temperature 64 °F 64 °F 83 °F (1987)
Min Temperature 53 °F 44 °F 28 °F (1976)
Degree Days  
Heating Degree Days 6    
Growing Degree Days 8 (Base 50)    
Moisture  
Dew Point 53 °F    
Average Humidity 83    
Maximum Humidity 100    
Minimum Humidity 64    
Precipitation  
Precipitation 0.00 in - - ()
Sea Level Pressure  
Sea Level Pressure 29.83 in    
Wind  
Wind Speed 5 mph (NNE)    
Max Wind Speed 13 mph    
Max Gust Speed -    
Visibility 9 miles    
Events      
Averages and records for this station are not official NWS values.
T = Trace of Precipitation, MM = Missing Value Source: NWS Daily Summary

Daily Weather History Graph

Daily Weather History Graph

Search for Another Location

Airport:

Trip Planner

Search our weather history database for the weather conditions in past years. The results will help you decide how hot, cold, wet, or windy it might be!

Date:

Astronomy

Sep. 28, 2011 Rise Set
Actual Time 6:43 AM CDT 6:36 PM CDT
Civil Twilight 6:14 AM CDT 7:05 PM CDT
Nautical Twilight 5:40 AM CDT 7:39 PM CDT
Astronomical Twilight 5:05 AM CDT 8:14 PM CDT
Moon 8:19 AM CDT (9/28) 6:57 PM CDT (9/28)
Length of Visible Light 12h 50m
Length of Day
11h 52m
New Moon, 2% of the Moon is Illuminated
Sep 28
New Moon
Oct 3
First Quarter
Oct 11
Full
Oct 19
Last Quarter
Oct 26
New

Hourly Weather History & Observations

Time (CDT) Temp. Dew Point Humidity Pressure Visibility Wind Dir Wind Speed Gust Speed Precip Events Conditions
12:15 AM 53.6 °F 50.0 °F 88% 29.83 in 10.0 mi East 3.5 mph - N/A   Clear
12:35 AM 55.4 °F 50.0 °F 82% 29.84 in 10.0 mi ENE 4.6 mph - N/A   Clear
12:55 AM 55.4 °F 48.2 °F 77% 29.84 in 10.0 mi NE 4.6 mph - N/A   Scattered Clouds
1:15 AM 55.4 °F 48.2 °F 77% 29.84 in 10.0 mi NNE 5.8 mph - N/A   Scattered Clouds
1:35 AM 55.4 °F 50.0 °F 82% 29.84 in 10.0 mi ENE 4.6 mph - N/A   Scattered Clouds
1:55 AM 55.4 °F 50.0 °F 82% 29.83 in 10.0 mi ENE 4.6 mph - N/A   Mostly Cloudy
2:15 AM 55.4 °F 50.0 °F 82% 29.83 in 10.0 mi NNE 4.6 mph - N/A   Overcast
2:35 AM 55.4 °F 51.8 °F 88% 29.83 in 10.0 mi NE 4.6 mph - N/A   Overcast
2:55 AM 57.2 °F 53.6 °F 88% 29.82 in 10.0 mi NE 4.6 mph - N/A   Overcast
3:15 AM 55.4 °F 53.6 °F 94% 29.82 in 10.0 mi Calm Calm - N/A   Overcast
3:35 AM 55.4 °F 53.6 °F 94% 29.81 in 10.0 mi Calm Calm - N/A   Overcast
3:55 AM 55.4 °F 53.6 °F 94% 29.81 in 10.0 mi NNE 3.5 mph - N/A   Scattered Clouds
4:15 AM 55.4 °F 53.6 °F 94% 29.81 in 10.0 mi NE 4.6 mph - N/A   Clear
4:35 AM 55.4 °F 51.8 °F 88% 29.81 in 10.0 mi NNE 5.8 mph - N/A   Clear
4:55 AM 55.4 °F 51.8 °F 88% 29.81 in 10.0 mi North 6.9 mph - N/A   Clear
5:35 AM 55.4 °F 53.6 °F 94% 29.81 in 10.0 mi North 10.4 mph - N/A   Clear
5:55 AM 55.4 °F 53.6 °F 94% 29.82 in 8.0 mi ENE 6.9 mph - N/A   Partly Cloudy
6:15 AM 55.4 °F 53.6 °F 94% 29.83 in 10.0 mi ENE 4.6 mph - N/A   Mostly Cloudy
6:35 AM 53.6 °F 51.8 °F 94% 29.83 in 7.0 mi NE 4.6 mph - N/A   Mostly Cloudy
6:55 AM 53.6 °F 51.8 °F 94% 29.83 in 5.0 mi NE 3.5 mph - N/A   Partly Cloudy
7:15 AM 53.6 °F 53.6 °F 100% 29.83 in 7.0 mi NE 3.5 mph - N/A   Clear
7:35 AM 53.6 °F 51.8 °F 94% 29.84 in 5.0 mi Calm Calm - N/A   Mostly Cloudy
7:55 AM 55.4 °F 53.6 °F 94% 29.84 in 7.0 mi North 3.5 mph - N/A   Overcast
8:15 AM 57.2 °F 53.6 °F 88% 29.84 in 10.0 mi ENE 5.8 mph - N/A   Overcast
8:35 AM 57.2 °F 53.6 °F 88% 29.84 in 9.0 mi NNE 5.8 mph - N/A   Overcast
8:55 AM 57.2 °F 53.6 °F 88% 29.84 in 9.0 mi North 5.8 mph - N/A   Overcast
9:15 AM 57.2 °F 55.4 °F 94% 29.84 in 7.0 mi NE 4.6 mph - N/A   Overcast
9:35 AM 57.2 °F 53.6 °F 88% 29.84 in 5.0 mi North 4.6 mph - N/A   Overcast
9:55 AM 57.2 °F 55.4 °F 94% 29.84 in 9.0 mi NNE 6.9 mph - N/A   Overcast
10:15 AM 57.2 °F 55.4 °F 94% 29.86 in 10.0 mi North 3.5 mph - N/A   Overcast
10:55 AM 59.0 °F 55.4 °F 88% 29.86 in 10.0 mi NW 8.1 mph - N/A   Mostly Cloudy
11:15 AM 60.8 °F 55.4 °F 82% 29.87 in 10.0 mi NNW 8.1 mph - N/A   Overcast
11:35 AM 60.8 °F 55.4 °F 82% 29.87 in 10.0 mi NNW 9.2 mph - N/A   Overcast
11:55 AM 60.8 °F 55.4 °F 82% 29.87 in 10.0 mi North 12.7 mph - N/A   Overcast
12:15 PM 60.8 °F 55.4 °F 82% 29.87 in 10.0 mi North 11.5 mph - N/A   Overcast
12:35 PM 60.8 °F 55.4 °F 82% 29.86 in 10.0 mi North 10.4 mph - N/A   Mostly Cloudy
12:55 PM 62.6 °F 55.4 °F 77% 29.85 in 10.0 mi North 8.1 mph - N/A   Scattered Clouds
1:15 PM 62.6 °F 55.4 °F 77% 29.83 in 10.0 mi North 4.6 mph - N/A   Mostly Cloudy
1:35 PM 62.6 °F 57.2 °F 82% 29.84 in 10.0 mi North 5.8 mph - N/A   Scattered Clouds
1:55 PM 62.6 °F 55.4 °F 77% 29.83 in 10.0 mi North 9.2 mph - N/A   Partly Cloudy
2:15 PM 60.8 °F 55.4 °F 82% 29.83 in 10.0 mi North 10.4 mph - N/A   Clear
2:35 PM 62.6 °F 55.4 °F 77% 29.83 in 10.0 mi North 9.2 mph - N/A   Clear
2:55 PM 64.4 °F 55.4 °F 73% 29.83 in 10.0 mi North 5.8 mph - N/A   Clear
3:15 PM 62.6 °F 55.4 °F 77% 29.83 in 10.0 mi NNE 3.5 mph - N/A   Scattered Clouds
3:35 PM 64.4 °F 53.6 °F 68% 29.82 in 10.0 mi North 5.8 mph - N/A   Scattered Clouds
3:55 PM 64.4 °F 53.6 °F 68% 29.82 in 10.0 mi ENE 4.6 mph - N/A   Clear
4:15 PM 64.4 °F 51.8 °F 64% 29.81 in 10.0 mi NNE 4.6 mph - N/A   Clear
4:35 PM 64.4 °F 51.8 °F 64% 29.82 in 10.0 mi NNW 4.6 mph - N/A   Clear
4:55 PM 64.4 °F 53.6 °F 68% 29.81 in 10.0 mi North 6.9 mph - N/A   Clear
5:15 PM 62.6 °F 55.4 °F 77% 29.82 in 10.0 mi North 6.9 mph - N/A   Mostly Cloudy
5:35 PM 62.6 °F 55.4 °F 77% 29.83 in 10.0 mi North 3.5 mph - N/A   Overcast
5:55 PM 62.6 °F 53.6 °F 72% 29.83 in 10.0 mi NNE 3.5 mph - N/A   Partly Cloudy
6:15 PM 62.6 °F 53.6 °F 72% 29.83 in 10.0 mi Calm Calm - N/A   Scattered Clouds
6:35 PM 60.8 °F 53.6 °F 77% 29.82 in 10.0 mi East 4.6 mph - N/A   Mostly Cloudy
6:55 PM 60.8 °F 51.8 °F 72% 29.82 in 10.0 mi East 3.5 mph - N/A   Partly Cloudy
7:15 PM 59.0 °F 51.8 °F 77% 29.82 in 10.0 mi East 4.6 mph - N/A   Clear
7:35 PM 57.2 °F 53.6 °F 88% 29.81 in 10.0 mi ESE 4.6 mph - N/A   Clear
7:55 PM 57.2 °F 51.8 °F 82% 29.80 in 10.0 mi ESE 6.9 mph - N/A   Clear
8:15 PM 57.2 °F 51.8 °F 82% 29.80 in 10.0 mi East 5.8 mph - N/A   Clear
8:35 PM 57.2 °F 51.8 °F 82% 29.79 in 10.0 mi East 3.5 mph - N/A   Clear
8:55 PM 57.2 °F 51.8 °F 82% 29.80 in 10.0 mi Calm Calm - N/A   Clear
9:15 PM 53.6 °F 50.0 °F 88% 29.80 in 10.0 mi Calm Calm - N/A   Clear
9:35 PM 53.6 °F 50.0 °F 88% 29.78 in 8.0 mi Calm Calm - N/A   Clear
9:55 PM 53.6 °F 50.0 °F 88% 29.79 in 5.0 mi Calm Calm - N/A   Clear
10:15 PM 53.6 °F 50.0 °F 88% 29.78 in 7.0 mi Calm Calm - N/A   Clear
10:35 PM 51.8 °F 48.2 °F 88% 29.78 in 3.0 mi Calm Calm - N/A   Clear
10:55 PM 53.6 °F 50.0 °F 88% 29.78 in 4.0 mi Calm Calm - N/A   Clear
11:15 PM 51.8 °F 48.2 °F 88% 29.78 in 4.0 mi Calm Calm - N/A   Clear
11:35 PM 51.8 °F 48.2 °F 88% 29.78 in 0.5 mi Calm Calm - N/A   Mostly Cloudy
11:55 PM 50.0 °F 48.2 °F 94% 29.77 in 0.2 mi Calm Calm - N/A   Overcast